TimeEDT,TemperatureF,Dew PointF,Humidity,Sea Level PressureIn,VisibilityMPH,Wind Direction,Wind SpeedMPH,Gust SpeedMPH,PrecipitationIn,Events,Conditions,WindDirDegrees,DateUTC
12:15 AM,35.6,23.0,60,29.83,10.0,North,3.5,-,N/A,,Clear,350,2013-03-21 04:15:00
12:35 AM,35.6,23.0,60,29.83,10.0,NNW,4.6,-,N/A,,Clear,340,2013-03-21 04:35:00
12:55 AM,35.6,23.0,60,29.84,10.0,NNW,4.6,-,N/A,,Partly Cloudy,330,2013-03-21 04:55:00
1:15 AM,35.6,23.0,60,29.84,10.0,Calm,Calm,-,N/A,,Partly Cloudy,0,2013-03-21 05:15:00
1:35 AM,33.8,23.0,65,29.83,10.0,North,3.5,-,N/A,,Clear,10,2013-03-21 05:35:00
2:15 AM,33.8,23.0,65,29.82,10.0,Calm,Calm,-,N/A,,Partly Cloudy,0,2013-03-21 06:15:00
2:35 AM,33.8,21.2,60,29.83,10.0,NNW,6.9,-,N/A,,Mostly Cloudy,340,2013-03-21 06:35:00
2:55 AM,35.6,21.2,56,29.83,10.0,North,5.8,-,N/A,,Overcast,10,2013-03-21 06:55:00
3:15 AM,33.8,23.0,65,29.82,10.0,North,6.9,-,N/A,,Overcast,360,2013-03-21 07:15:00
3:35 AM,33.8,23.0,65,29.82,7.0,North,5.8,-,N/A,,Overcast,350,2013-03-21 07:35:00
3:55 AM,30.2,26.6,86,29.82,3.0,North,4.6,-,N/A,,Overcast,10,2013-03-21 07:55:00
4:15 AM,30.2,26.6,86,29.82,1.8,NNE,4.6,-,N/A,,Overcast,20,2013-03-21 08:15:00
4:35 AM,30.2,26.6,86,29.81,8.0,Calm,Calm,-,N/A,,Mostly Cloudy,0,2013-03-21 08:35:00
4:55 AM,30.2,24.8,80,29.80,10.0,Calm,Calm,-,N/A,,Overcast,0,2013-03-21 08:55:00
5:15 AM,30.2,24.8,80,29.81,10.0,North,3.5,-,N/A,,Overcast,360,2013-03-21 09:15:00
5:35 AM,30.2,21.2,69,29.81,10.0,Calm,Calm,-,N/A,,Overcast,0,2013-03-21 09:35:00
5:55 AM,30.2,17.6,60,29.81,10.0,North,4.6,-,N/A,,Overcast,350,2013-03-21 09:55:00
6:15 AM,30.2,15.8,55,29.82,10.0,North,4.6,-,N/A,,Mostly Cloudy,350,2013-03-21 10:15:00
6:35 AM,30.2,15.8,55,29.82,10.0,NNE,3.5,-,N/A,,Partly Cloudy,20,2013-03-21 10:35:00
6:55 AM,30.2,14.0,51,29.82,10.0,NNW,4.6,-,N/A,,Mostly Cloudy,340,2013-03-21 10:55:00
7:15 AM,30.2,15.8,55,29.83,10.0,NNW,6.9,-,N/A,,Partly Cloudy,340,2013-03-21 11:15:00
7:35 AM,30.2,14.0,51,29.83,10.0,North,4.6,-,N/A,,Clear,360,2013-03-21 11:35:00
7:55 AM,30.2,14.0,51,-9999,10.0,North,-9999.0,-,N/A,,Clear,0,2013-03-21 11:55:00
8:15 AM,30.2,12.2,47,29.83,10.0,NNW,8.1,-,N/A,,Scattered Clouds,330,2013-03-21 12:15:00
8:55 AM,30.2,12.2,47,29.83,10.0,NNW,8.1,-,N/A,,Clear,340,2013-03-21 12:55:00
9:15 AM,30.2,14.0,51,29.82,10.0,North,6.9,17.3,N/A,,Partly Cloudy,360,2013-03-21 13:15:00
9:35 AM,32.0,14.0,48,29.82,10.0,North,6.9,-,N/A,,Scattered Clouds,10,2013-03-21 13:35:00
9:55 AM,32.0,12.2,44,29.82,10.0,North,8.1,-,N/A,,Partly Cloudy,360,2013-03-21 13:55:00
10:15 AM,32.0,12.2,44,29.81,10.0,North,9.2,19.6,N/A,,Clear,350,2013-03-21 14:15:00
10:35 AM,32.0,12.2,44,29.81,10.0,NNW,13.8,24.2,N/A,,Mostly Cloudy,330,2013-03-21 14:35:00
10:55 AM,33.8,12.2,41,29.81,10.0,NNW,12.7,20.7,N/A,,Overcast,330,2013-03-21 14:55:00
11:15 AM,33.8,12.2,41,29.81,10.0,NNW,11.5,27.6,N/A,,Mostly Cloudy,340,2013-03-21 15:15:00
11:35 AM,35.6,14.0,41,29.81,10.0,NW,18.4,23.0,N/A,,Mostly Cloudy,310,2013-03-21 15:35:00
11:55 AM,33.8,8.6,35,29.81,10.0,NNW,9.2,24.2,N/A,,Scattered Clouds,340,2013-03-21 15:55:00
12:35 PM,35.6,12.2,38,29.80,10.0,NW,15.0,24.2,N/A,,Scattered Clouds,310,2013-03-21 16:35:00
12:55 PM,33.8,8.6,35,29.80,10.0,NNW,12.7,21.9,N/A,,Scattered Clouds,330,2013-03-21 16:55:00
1:15 PM,35.6,10.4,35,29.79,10.0,NNW,11.5,27.6,N/A,,Mostly Cloudy,330,2013-03-21 17:15:00
1:35 PM,33.8,10.4,38,29.79,10.0,North,8.1,18.4,N/A,,Overcast,350,2013-03-21 17:35:00
1:55 PM,33.8,8.6,35,29.79,10.0,NNW,12.7,20.7,N/A,,Mostly Cloudy,340,2013-03-21 17:55:00
2:15 PM,35.6,12.2,38,29.78,10.0,NW,17.3,26.5,N/A,,Mostly Cloudy,320,2013-03-21 18:15:00
2:35 PM,33.8,8.6,35,29.78,10.0,NNW,13.8,23.0,N/A,,Mostly Cloudy,330,2013-03-21 18:35:00
2:55 PM,32.0,8.6,38,29.78,10.0,NNW,10.4,23.0,N/A,,Mostly Cloudy,340,2013-03-21 18:55:00
3:15 PM,35.6,10.4,35,29.77,10.0,NW,19.6,27.6,N/A,,Mostly Cloudy,310,2013-03-21 19:15:00
3:35 PM,33.8,6.8,32,29.78,10.0,NNW,8.1,24.2,N/A,,Mostly Cloudy,340,2013-03-21 19:35:00
3:55 PM,35.6,8.6,33,29.78,10.0,NW,11.5,19.6,N/A,,Overcast,310,2013-03-21 19:55:00
4:15 PM,32.0,6.8,35,29.78,10.0,NW,13.8,19.6,N/A,,Overcast,320,2013-03-21 20:15:00
4:35 PM,32.0,8.6,38,29.78,10.0,NNW,13.8,23.0,N/A,,Mostly Cloudy,340,2013-03-21 20:35:00
4:55 PM,32.0,6.8,35,29.78,10.0,WNW,15.0,23.0,N/A,,Mostly Cloudy,300,2013-03-21 20:55:00
5:15 PM,32.0,6.8,35,29.79,10.0,NW,13.8,24.2,N/A,,Overcast,310,2013-03-21 21:15:00
5:35 PM,32.0,6.8,35,29.80,10.0,NNW,15.0,23.0,N/A,,Overcast,330,2013-03-21 21:35:00
5:55 PM,30.2,6.8,37,29.81,10.0,NNW,11.5,29.9,N/A,,Overcast,330,2013-03-21 21:55:00
6:15 PM,32.0,6.8,35,29.81,10.0,WNW,16.1,26.5,N/A,,Mostly Cloudy,300,2013-03-21 22:15:00
6:35 PM,30.2,6.8,37,29.83,10.0,North,12.7,26.5,N/A,,Mostly Cloudy,350,2013-03-21 22:35:00
6:55 PM,30.2,5.0,34,29.84,10.0,NNW,12.7,24.2,N/A,,Mostly Cloudy,330,2013-03-21 22:55:00
7:15 PM,28.4,6.8,40,29.84,10.0,NW,19.6,26.5,N/A,,Partly Cloudy,320,2013-03-21 23:15:00
7:35 PM,28.4,6.8,40,29.85,10.0,NNW,11.5,20.7,N/A,,Partly Cloudy,340,2013-03-21 23:35:00
7:55 PM,28.4,6.8,40,29.86,10.0,NNW,12.7,20.7,N/A,,Clear,330,2013-03-21 23:55:00
8:15 PM,28.4,5.0,37,29.87,10.0,NNW,9.2,18.4,N/A,,Clear,330,2013-03-22 00:15:00
8:35 PM,26.6,6.8,43,29.87,10.0,NW,11.5,-,N/A,,Clear,320,2013-03-22 00:35:00
8:55 PM,26.6,6.8,43,29.88,10.0,NW,11.5,-,N/A,,Clear,310,2013-03-22 00:55:00
9:15 PM,26.6,6.8,43,29.88,10.0,NW,10.4,20.7,N/A,,Clear,320,2013-03-22 01:15:00
9:35 PM,26.6,6.8,43,29.89,10.0,NW,13.8,-,N/A,,Clear,310,2013-03-22 01:35:00
9:55 PM,26.6,6.8,43,29.89,10.0,NW,9.2,-,N/A,,Clear,320,2013-03-22 01:55:00
10:15 PM,26.6,6.8,43,29.89,10.0,WNW,10.4,-,N/A,,Clear,300,2013-03-22 02:15:00
10:35 PM,26.6,6.8,43,29.90,10.0,NW,11.5,-,N/A,,Clear,310,2013-03-22 02:35:00
10:55 PM,26.6,6.8,43,29.90,10.0,NW,9.2,-,N/A,,Clear,310,2013-03-22 02:55:00
11:15 PM,26.6,6.8,43,29.90,10.0,WNW,6.9,-,N/A,,Clear,300,2013-03-22 03:15:00
11:35 PM,26.6,8.6,47,29.90,10.0,WNW,8.1,-,N/A,,Clear,300,2013-03-22 03:35:00
11:55 PM,26.6,8.6,47,29.90,10.0,WNW,10.4,-,N/A,,Clear,300,2013-03-22 03:55:00